Station RCPT2 - 8774770 - Rockport, TX Image indicating link to RSS feed of recent meteorological observations for station RCPT2


Conditions at RCPT2 as of
(3:00 pm CDT)
2000 GMT on 07/19/2024:
     

Click on the graph icon in the table below to see a time series plot of the last five days of that observation.

5-day plot - Wind Direction Wind Direction (WDIR):ESE ( 120 deg true )
5-day plot - Wind Speed Wind Speed (WSPD): 7.0 kts
5-day plot - Wind Gust Wind Gust (GST): 12.0 kts
5-day plot - Atmospheric Pressure Atmospheric Pressure (PRES):29.93 in
5-day plot - Pressure Tendency Pressure Tendency (PTDY):-0.04 in ( Falling )
5-day plot - Air Temperature Air Temperature (ATMP): 91.0 °F
5-day plot - Water Temperature Water Temperature (WTMP): 87.6 °F
5-day plot - Wind Speed at 10 Meters Wind Speed at 10 meters (WSPD10M): 7.8 kts
5-day plot - Wind Speed at 20 Meters Wind Speed at 20 meters (WSPD20M): 7.8 kts
5-day plot -  Wind Speed, Wind Gust and Atmospheric Pressure Combined plot of Wind Speed, Gust, and Air Pressure
NOS Water Level Observation Network Water Level
Previous observations
TIME
(CDT)
5-day plot - Wind Direction
WDIR
 
5-day plot - Wind Speed
WSPD
kts
5-day plot - Wind Gust
GST
kts
5-day plot - Wave Height
WVHT
ft
5-day plot - Dominant Wave Period
DPD
sec
5-day plot - Average Wave Period
APD
sec
5-day plot - Mean Wave Direction
MWD
 
5-day plot - Atmospheric Pressure
PRES
in
5-day plot - Pressure Tendency
PTDY
in
5-day plot - Air Temperature
ATMP
°F
5-day plot - Water Temperature
WTMP
°F
5-day plot - Dew Point
DEWP
°F
5-day plot - Salinity
SAL
psu
5-day plot - Visibility
VIS
nmi
5-day plot - Tide (above MLLW)
TIDE
ft
2024-07-19 02:54 pmESE 6.0 11.1----29.93- 91.8 87.6----
2024-07-19 02:48 pmESE 8.0 12.0----29.93- 90.9 87.4----
2024-07-19 02:42 pmESE 8.9 15.0----29.93- 91.0 87.4----
2024-07-19 02:36 pmESE 8.0 11.1----29.93- 91.4 87.3----
2024-07-19 02:30 pmESE 8.9 12.0----29.94- 91.2 87.3----
2024-07-19 02:24 pmESE 8.0 13.0----29.94- 91.2 87.4----
2024-07-19 02:18 pmESE 8.0 14.0----29.94- 92.1 87.3----
2024-07-19 02:12 pm E 12.0 17.1----29.95- 91.8 87.3----
2024-07-19 02:06 pm E 11.1 13.0----29.95- 92.1 87.3----
2024-07-19 02:00 pm E 7.0 9.9----29.95-0.04 93.2 87.4----
2024-07-19 01:54 pm E 7.0 11.1----29.95- 93.0 87.3----
2024-07-19 01:48 pm E 8.0 9.9----29.95- 94.1 87.3----
2024-07-19 01:42 pmESE 6.0 8.0----29.95- 93.9 87.3----
2024-07-19 01:36 pm E 6.0 8.0----29.95- 93.9 87.3----
2024-07-19 01:30 pm E 6.0 8.0----29.95- 93.4 87.3----
2024-07-19 01:24 pm E 7.0 8.0----29.96- 93.2 87.3----
2024-07-19 01:18 pm E 7.0 8.9----29.96- 93.4 87.3----
2024-07-19 01:12 pm E 5.1 7.0----29.96- 93.4 87.3----
2024-07-19 01:06 pm E 6.0 8.0----29.96- 92.8 87.3----
2024-07-19 01:00 pmESE 5.1 8.0----29.96-0.04 92.8 87.3----
2024-07-19 12:54 pmESE 5.1 8.0----29.96- 92.8 87.3----
2024-07-19 12:48 pm E 6.0 8.0----29.96- 92.7 87.3----
2024-07-19 12:42 pm E 5.1 8.0----29.96- 92.3 87.3----
2024-07-19 12:36 pmESE 5.1 7.0----29.96- 92.8 87.3----
2024-07-19 12:30 pmESE 2.9 6.0----29.96- 93.0 87.3----
2024-07-19 12:24 pm E 5.1 7.0----29.97- 92.8 87.3----
2024-07-19 12:18 pm E 5.1 7.0----29.97- 92.5 87.3----
2024-07-19 12:12 pm E 4.1 6.0----29.97- 92.1 87.3----
2024-07-19 12:06 pm E 4.1 6.0----29.97- 91.8 87.3----
2024-07-19 12:00 pmESE 5.1 6.0----29.97-0.01 91.8 87.3----
2024-07-19 11:54 am SE 5.1 6.0----29.98- 92.3 87.3----
2024-07-19 11:48 amESE 4.1 5.1----29.98- 92.1 87.3----
2024-07-19 11:42 am SE 4.1 6.0----29.98- 90.3 87.3----
2024-07-19 11:36 am SE 4.1 6.0----29.98- 90.9 87.3----
2024-07-19 11:30 am SE 2.9 5.1----29.97- 90.0 87.3----
2024-07-19 11:24 am S 2.9 7.0----29.98- 88.7 87.3----
2024-07-19 11:18 amWSW 1.9 6.0----29.98- 88.3 87.3----
2024-07-19 11:12 amWNW 4.1 6.0----29.98- 88.3 87.3----
2024-07-19 11:06 amWSW 4.1 6.0----29.98- 88.3 87.3----
2024-07-19 11:00 amWNW 2.9 6.0----29.98+0.01 88.3 87.3----
2024-07-19 10:54 amWNW 5.1 7.0----29.98- 87.4 87.3----
2024-07-19 10:48 am S 2.9 8.0----29.98- 87.8 87.3----
2024-07-19 10:42 am W 5.1 6.0----29.98- 87.8 87.3----
2024-07-19 10:36 am W 5.1 8.9----29.98- 87.3 87.1----
2024-07-19 10:30 amWNW 6.0 8.9----29.99- 87.3 87.1----
2024-07-19 10:24 amWNW 8.0 9.9----29.99- 87.1 87.3----
2024-07-19 10:18 am W 5.1 9.9----29.99- 86.9 87.3----
2024-07-19 10:12 am W 4.1 7.0----29.99- 86.7 87.3----
2024-07-19 10:06 amWNW 5.1 6.0----29.99- 87.1 87.3----
2024-07-19 10:00 am W 5.1 8.9----29.99+0.04 86.4 87.1----
2024-07-19 09:54 amWNW 6.0 8.9----29.99- 86.2 87.3----
2024-07-19 09:48 amWNW 6.0 8.0----29.99- 86.0 87.3----
2024-07-19 09:42 am NW 5.1 7.0----29.99- 86.0 87.3----
2024-07-19 09:36 am W 5.1 8.0----29.99- 86.0 87.1----
2024-07-19 09:30 am NW 4.1 7.0----29.99- 86.0 87.1----
2024-07-19 09:24 am W 4.1 8.9----29.99- 85.6 87.1----
2024-07-19 09:18 amWNW 5.1 7.0----29.98- 85.8 87.1----
2024-07-19 09:12 am W 4.1 7.0----29.98- 85.5 87.3----
2024-07-19 09:06 am W 6.0 9.9----29.98- 85.1 87.3----
2024-07-19 09:00 am W 5.1 7.0----29.98+0.04 85.3 87.1----
2024-07-19 08:54 amWSW 6.0 8.9----29.98- 84.9 87.1----
2024-07-19 08:48 am W 5.1 8.0----29.98- 84.9 87.1----
2024-07-19 08:42 am W 5.1 8.0----29.98- 84.2 87.1----
2024-07-19 08:36 amWSW 6.0 8.0----29.97- 83.8 87.1----
2024-07-19 08:30 amWSW 5.1 7.0----29.97- 83.5 87.1----
2024-07-19 08:24 am SW 5.1 7.0----29.97- 83.3 87.1----
2024-07-19 08:18 am SW 4.1 6.0----29.97- 83.1 87.1----
2024-07-19 08:12 amWSW 4.1 6.0----29.97- 82.8 87.1----
2024-07-19 08:06 amWSW 5.1 6.0----29.97- 82.2 87.1----
2024-07-19 08:00 am W 2.9 5.1----29.97+0.03 82.0 87.1----
2024-07-19 07:54 am W 2.9 6.0----29.97- 81.7 87.1----
2024-07-19 07:48 am W 2.9 4.1----29.96- 81.5 87.1----
2024-07-19 07:42 amWSW 4.1 5.1----29.96- 81.3 87.1----
2024-07-19 07:36 am W 5.1 5.1----29.96- 81.0 87.3----
2024-07-19 07:30 am W 4.1 6.0----29.96- 81.0 87.3----
2024-07-19 07:24 am W 4.1 5.1----29.96- 80.8 87.3----
2024-07-19 07:18 am W 4.1 5.1----29.96- 80.8 87.3----
2024-07-19 07:12 am W 2.9 4.1----29.96- 80.8 87.3----
2024-07-19 07:06 am W 2.9 6.0----29.96- 80.8 87.3----
2024-07-19 07:00 am W 4.1 6.0----29.95+0.02 80.8 87.3----
2024-07-19 06:54 am W 4.1 5.1----29.95- 80.8 87.3----
2024-07-19 06:48 amWSW 4.1 6.0----29.95-- 87.3----
2024-07-19 06:42 amWSW 4.1 5.1----29.95-- 87.3----
2024-07-19 06:36 amWSW 4.1 6.0----29.95-- 87.3----
2024-07-19 06:30 amWSW 5.1 6.0----29.94- 81.0 87.3----
2024-07-19 06:24 am W 4.1 5.1----29.94- 81.1 87.3----
2024-07-19 06:18 amWSW 5.1 6.0----29.94- 81.3 87.3----
2024-07-19 06:12 amWSW 5.1 7.0----29.94- 81.7 87.3----
2024-07-19 06:06 amWSW 5.1 6.0----29.94- 81.9 87.3----
2024-07-19 06:00 amWSW 4.1 6.0----29.94+0.00 81.9 87.3----
2024-07-19 05:54 amWSW 5.1 7.0----29.94- 82.2 87.3----
2024-07-19 05:48 amWSW 5.1 7.0----29.93-- 87.3----
2024-07-19 05:42 amWSW 4.1 6.0----29.93-- 87.3----
2024-07-19 05:36 am SW 5.1 6.0----29.93-- 87.4----
2024-07-19 05:30 am SW 5.1 7.0----29.93- 82.8 87.4----
2024-07-19 05:24 am SW 5.1 6.0----29.94- 82.9 87.4----
2024-07-19 05:18 am SW 4.1 5.1----29.94- 82.9 87.4----
2024-07-19 05:12 am SW 4.1 5.1----29.93- 82.9 87.4----
2024-07-19 05:06 am SW 4.1 5.1----29.94- 83.1 87.4----
2024-07-19 05:00 am SW 2.9 5.1----29.94+0.00 83.3 87.4----
2024-07-19 04:54 am SW 2.9 8.0----29.93- 83.5 87.4----
2024-07-19 04:48 amSSW 6.0 9.9----29.93- 83.8 87.4----
2024-07-19 04:42 amSSW 6.0 8.0----29.93- 84.0 87.4----
2024-07-19 04:36 amSSW 7.0 8.9----29.93- 84.0 87.4----
2024-07-19 04:30 amSSW 7.0 8.0----29.93- 83.8 87.4----
2024-07-19 04:24 amSSW 6.0 7.0----29.93- 83.7 87.4----
2024-07-19 04:18 amSSW 5.1 7.0----29.93- 83.8 87.4----
2024-07-19 04:12 amSSW 5.1 8.9----29.93- 84.0 87.4----
2024-07-19 04:06 amSSW 6.0 8.0----29.93- 84.0 87.4----
2024-07-19 04:00 amSSW 6.0 8.9----29.93-0.01 84.0 87.4----
2024-07-19 03:54 amSSW 7.0 9.9----29.93- 84.0 87.4----
2024-07-19 03:48 amSSW 7.0 8.9----29.93- 84.0 87.4----
2024-07-19 03:42 amSSW 7.0 8.9----29.94- 84.4 87.4----
2024-07-19 03:36 amSSW 7.0 9.9----29.94- 84.2 87.4----
2024-07-19 03:30 amSSW 8.0 11.1----29.94- 84.4 87.4----
2024-07-19 03:24 am S 9.9 11.1----29.94- 84.7 87.4----
2024-07-19 03:18 am S 8.9 12.0----29.94- 84.9 87.4----
2024-07-19 03:12 am S 8.9 11.1----29.94- 84.9 87.6----
2024-07-19 03:06 am S 8.9 12.0----29.94- 84.9 87.6----
2024-07-19 03:00 am S 11.1 12.0----29.94-0.01 84.7 87.6----
2024-07-19 02:54 am S 11.1 12.0----29.94- 84.7 87.6----
2024-07-19 02:48 am S 9.9 13.0----29.94- 84.9 87.6----
2024-07-19 02:42 am S 9.9 12.0----29.94- 84.9 87.6----
2024-07-19 02:36 am S 9.9 13.0----29.94- 85.1 87.6----
2024-07-19 02:30 am S 12.0 14.0----29.94- 84.9 87.6----
2024-07-19 02:24 am S 12.0 14.0----29.94- 84.9 87.6----
2024-07-19 02:18 am S 12.0 14.0----29.94- 84.9 87.6----
2024-07-19 02:12 am S 13.0 15.0----29.94- 84.9 87.6----
2024-07-19 02:06 am S 13.0 15.9----29.94- 85.1 87.6----
2024-07-19 02:00 am S 14.0 15.9----29.94-0.03 84.9 87.6----
2024-07-19 01:54 am S 14.0 15.9----29.94- 84.9 87.6----
2024-07-19 01:48 am S 14.0 15.9----29.94- 85.1 87.6----
2024-07-19 01:42 am S 14.0 15.9----29.94- 84.9 87.8----
2024-07-19 01:36 am S 14.0 15.9----29.95- 85.1 87.8----
2024-07-19 01:30 am S 13.0 15.0----29.95- 85.1 87.8----
2024-07-19 01:24 am S 13.0 14.0----29.95- 85.1 87.8----
2024-07-19 01:18 am S 12.0 14.0----29.94- 85.3 87.8----
2024-07-19 01:12 am S 13.0 15.0----29.94- 85.1 87.8----
2024-07-19 01:06 am S 14.0 15.9----29.94- 85.1 87.8----
2024-07-19 01:00 am S 13.0 15.0----29.94+0.00 85.3 87.8----
2024-07-19 12:54 amSSE 13.0 15.0----29.95- 85.1 87.8----
2024-07-19 12:48 amSSE 12.0 15.0----29.95- 85.3-----
2024-07-19 12:42 am S 13.0 15.0----29.95- 85.3-----
2024-07-19 12:36 am S 13.0 14.0----29.95- 85.3-----
2024-07-19 12:30 amSSE 13.0 15.0----29.95- 85.1 87.8----
2024-07-19 12:24 amSSE 12.0 14.0----29.96- 85.3 87.8----
2024-07-19 12:18 amSSE 12.0 15.0----29.96- 85.1 87.8----
2024-07-19 12:12 amSSE 12.0 15.0----29.96- 85.3 88.0----
2024-07-19 12:06 amSSE 12.0 14.0----29.96- 85.5 88.0----
2024-07-19 12:00 amSSE 13.0 14.0----29.96+0.02 85.1 88.0----
2024-07-18 11:54 pmSSE 12.0 15.0----29.96- 85.3 88.0----
2024-07-18 11:48 pmSSE 13.0 14.0----29.96- 85.1 88.0----
2024-07-18 11:42 pmSSE 13.0 14.0----29.97- 85.1 88.0----
2024-07-18 11:36 pmSSE 12.0 14.0----29.97- 85.5 88.0----
2024-07-18 11:30 pmSSE 11.1 13.0----29.96- 85.1 88.0----
2024-07-18 11:24 pmSSE 8.0 14.0----29.96- 85.3 88.0----
2024-07-18 11:18 pmSSE 11.1 13.0----29.96- 85.3 88.0----
2024-07-18 11:12 pmSSE 11.1 13.0----29.96- 85.3 88.0----
2024-07-18 11:06 pmSSE 11.1 14.0----29.96- 85.1 88.2----
2024-07-18 11:00 pmSSE 11.1 12.0----29.96+0.04 85.3 88.2----
2024-07-18 10:54 pmSSE 12.0 13.0----29.96- 85.1 88.2----
2024-07-18 10:48 pmSSE 9.9 12.0----29.96- 85.1 88.2----
2024-07-18 10:42 pmSSE 11.1 13.0----29.96- 85.3 88.2----
2024-07-18 10:36 pmSSE 7.0 13.0----29.96- 85.1 88.2----
2024-07-18 10:30 pmSSE 11.1 13.0----29.95- 85.1 88.3----
2024-07-18 10:24 pmSSE 9.9 12.0----29.95- 85.3 88.3----
2024-07-18 10:18 pm SE 8.9 11.1----29.95- 85.1 88.3----
2024-07-18 10:12 pmSSE 8.9 12.0----29.94- 85.1 88.3----
2024-07-18 10:06 pmSSE 8.0 12.0----29.94- 85.3 88.3----
2024-07-18 10:00 pm SE 8.0 12.0----29.94+0.04 85.3 88.3----
2024-07-18 09:54 pm SE 8.0 11.1----29.94- 85.3 88.3----
2024-07-18 09:48 pm SE 8.0 12.0----29.94- 85.1 88.3----
2024-07-18 09:42 pm SE 7.0 11.1----29.94- 85.5 88.3----
2024-07-18 09:36 pm SE 7.0 11.1----29.94- 85.3 88.3----
2024-07-18 09:30 pm SE 7.0 9.9----29.94- 85.3 88.3----
2024-07-18 09:24 pm SE 8.0 9.9----29.94- 85.3 88.5----
2024-07-18 09:18 pm SE 8.0 9.9----29.94- 85.5 88.5----
2024-07-18 09:12 pm SE 7.0 8.9----29.94- 85.5 88.5----
2024-07-18 09:06 pm SE 8.0 9.9----29.94- 85.5 88.5----
2024-07-18 09:00 pm SE 7.0 8.9----29.94+0.04 85.5 88.5----
2024-07-18 08:54 pm SE 7.0 8.9----29.94- 85.6 88.5----
2024-07-18 08:48 pm SE 7.0 8.9----29.93- 85.8 88.5----
2024-07-18 08:42 pm SE 7.0 9.9----29.93- 85.8 88.5----
2024-07-18 08:36 pm SE 7.0 8.9----29.93- 85.6 88.5----
2024-07-18 08:30 pm SE 7.0 8.0----29.93- 85.6 88.5----
2024-07-18 08:24 pm SE 6.0 8.9----29.93- 86.0 88.5----
2024-07-18 08:18 pm SE 6.0 8.0----29.93- 86.2 88.5----
2024-07-18 08:12 pm SE 6.0 8.9----29.93- 86.4 88.0----
2024-07-18 08:06 pm SE 6.0 8.9----29.92- 87.1 88.0----
2024-07-18 08:00 pmESE 6.0 8.9----29.92+0.01 87.8 88.0----
2024-07-18 07:54 pm SE 6.0 8.9----29.92- 88.3 87.8----
2024-07-18 07:48 pmESE 6.0 8.9----29.92- 88.2 87.8----
2024-07-18 07:42 pm SE 7.0 8.9----29.92- 88.7 87.8----
2024-07-18 07:36 pmESE 5.1 8.9----29.91- 88.9 87.8----
2024-07-18 07:30 pmESE 5.1 8.0----29.91- 89.6 87.8----
2024-07-18 07:24 pmESE 6.0 8.9----29.91- 89.8 87.8----
2024-07-18 07:18 pm SE 6.0 8.9----29.91- 89.8 87.8----
2024-07-18 07:12 pmESE 6.0 8.9----29.91- 90.5 87.6----
2024-07-18 07:06 pmESE 6.0 9.9----29.91- 90.9 87.6----
2024-07-18 07:00 pmESE 6.0 9.9----29.91-0.02 90.7 87.6----
2024-07-18 06:54 pmESE 7.0 11.1----29.91- 90.1 87.6----
2024-07-18 06:48 pmESE 6.0 8.0----29.91- 90.9 87.6----
2024-07-18 06:42 pm SE 5.1 8.0----29.91- 91.2 87.4----
2024-07-18 06:36 pm SE 6.0 8.0----29.91- 91.2 87.6----
2024-07-18 06:30 pmESE 4.1 6.0----29.91- 92.1 87.4----
2024-07-18 06:24 pmESE 5.1 7.0----29.91- 92.7 87.6----
2024-07-18 06:18 pmESE 4.1 6.0----29.90- 92.8 87.6----
2024-07-18 06:12 pmESE 4.1 7.0----29.90- 92.7 87.6----
2024-07-18 06:06 pmESE 5.1 8.0----29.90- 92.7 87.4----
2024-07-18 06:00 pmESE 5.1 7.0----29.90-0.05 92.5 87.4----
2024-07-18 05:54 pmESE 5.1 7.0----29.90- 92.3 87.4----
2024-07-18 05:48 pmESE 5.1 6.0----29.90- 92.8 87.4----
2024-07-18 05:42 pmESE 4.1 6.0----29.90- 92.8 87.4----
2024-07-18 05:36 pmESE 4.1 7.0----29.90- 91.2 87.4----
2024-07-18 05:30 pm SE 5.1 7.0----29.90- 90.1 87.4----
2024-07-18 05:24 pm SE 6.0 8.0----29.91- 90.3 87.4----
2024-07-18 05:18 pm E 5.1 6.0----29.91- 91.0 87.4----
2024-07-18 05:12 pm E 4.1 6.0----29.91- 91.4 87.4----
2024-07-18 05:06 pmENE 2.9 5.1----29.91- 91.2 87.4----
2024-07-18 05:00 pmENE 1.9 4.1----29.91-0.07 91.6 87.4----
2024-07-18 04:54 pm E 2.9 6.0----29.91- 91.4 87.4----
2024-07-18 04:48 pmENE 2.9 6.0----29.91- 91.4 87.4----
2024-07-18 04:42 pm E 2.9 5.1----29.92- 92.1 87.4----
2024-07-18 04:36 pmENE 4.1 6.0----29.92- 91.4 87.3----
2024-07-18 04:30 pmENE 2.9 6.0----29.93- 91.8 87.3----
2024-07-18 04:24 pmENE 2.9 5.1----29.93- 91.2 87.3----
2024-07-18 04:18 pmENE 1.9 6.0----29.93- 90.1 87.3----
2024-07-18 04:12 pm NE 2.9 5.1----29.93- 90.0 87.3----
2024-07-18 04:06 pmNNE 2.9 6.0----29.93- 88.0 87.3----
2024-07-18 04:00 pm N 5.1 5.1----29.93-0.07 88.7 87.3----
2024-07-18 03:54 pmNNE 1.9 7.0----29.93- 90.1 87.3----
2024-07-18 03:48 pm NE 5.1 7.0----29.93- 90.7 87.3----
2024-07-18 03:42 pm NE 4.1 6.0----29.93- 90.1 87.1----
2024-07-18 03:36 pm NE 4.1 6.0----29.94- 89.1 87.1----
2024-07-18 03:30 pm NE 5.1 6.0----29.94- 88.9 87.1----
2024-07-18 03:24 pm NE 2.9 7.0----29.95- 88.5 87.1----
2024-07-18 03:18 pmNNE 4.1 7.0----29.95- 87.8 87.1----
2024-07-18 03:12 pm N 6.0 8.0----29.95- 87.6 87.1----
2024-07-18 03:06 pm N 6.0 8.0----29.95- 87.4 87.1----
2024-07-18 03:00 pm N 6.0 9.9----29.96-0.06 87.6 87.1----
2024-07-18 02:54 pm N 6.0 9.9----29.96- 87.4 87.1----